Time,TemperatureF,DewpointF,PressureIn,WindDirection,WindDirectionDegrees,WindSpeedMPH,WindSpeedGustMPH,Humidity,HourlyPrecipIn,Conditions,Clouds,dailyrainin,SoftwareType,DateUTC
2013-07-14 01:00:00,75.0,63.0,-100.00,ENE,58,2.0,-999.0,66,0.00,,,0.00,,2013-07-14 06:00:00,
2013-07-14 01:42:00,75.0,63.0,-100.00,ENE,58,2.0,-999.0,66,0.00,,,0.00,,2013-07-14 06:42:00,
2013-07-14 01:53:00,75.0,63.0,-100.00,ENE,58,2.0,-999.0,66,0.00,,,0.00,,2013-07-14 06:53:00,
2013-07-14 02:00:00,74.0,62.0,-100.00,ESE,123,3.0,-999.0,66,0.00,,,0.00,,2013-07-14 07:00:00,
2013-07-14 02:43:00,74.0,62.0,-100.00,ESE,123,3.0,-999.0,66,0.00,,,0.00,,2013-07-14 07:43:00,
2013-07-14 02:53:00,74.0,62.0,-100.00,ESE,123,3.0,-999.0,66,0.00,,,0.00,,2013-07-14 07:53:00,
2013-07-14 03:00:00,74.0,62.0,-100.00,SE,135,2.0,-999.0,68,0.00,,,0.00,,2013-07-14 08:00:00,
2013-07-14 03:42:00,74.0,62.0,-100.00,SE,135,2.0,-999.0,68,0.00,,,0.00,,2013-07-14 08:42:00,
2013-07-14 03:53:00,74.0,62.0,-100.00,SE,135,2.0,-999.0,68,0.00,,,0.00,,2013-07-14 08:53:00,
2013-07-14 04:00:00,74.0,62.0,-100.00,East,99,3.0,-999.0,67,0.00,,,0.00,,2013-07-14 09:00:00,
2013-07-14 04:42:00,74.0,62.0,-100.00,East,99,3.0,-999.0,67,0.00,,,0.00,,2013-07-14 09:42:00,
2013-07-14 04:53:00,74.0,62.0,-100.00,East,99,3.0,-999.0,67,0.00,,,0.00,,2013-07-14 09:53:00,
2013-07-14 05:00:00,73.0,63.0,-100.00,East,83,2.0,-999.0,69,0.00,,,0.00,,2013-07-14 10:00:00,
2013-07-14 05:42:00,73.0,63.0,-100.00,East,83,2.0,-999.0,69,0.00,,,0.00,,2013-07-14 10:42:00,
2013-07-14 05:53:00,73.0,63.0,-100.00,East,83,2.0,-999.0,69,0.00,,,0.00,,2013-07-14 10:53:00,
2013-07-14 06:00:00,70.0,62.0,-100.00,SE,137,3.0,-999.0,76,0.00,,,0.00,,2013-07-14 11:00:00,
2013-07-14 06:43:00,70.0,62.0,-100.00,SE,137,3.0,-999.0,76,0.00,,,0.00,,2013-07-14 11:43:00,
2013-07-14 06:53:00,70.0,62.0,-100.00,SE,137,3.0,-999.0,76,0.00,,,0.00,,2013-07-14 11:53:00,
2013-07-14 07:00:00,73.0,62.0,-100.00,ENE,58,4.0,-999.0,70,0.00,,,0.00,,2013-07-14 12:00:00,
2013-07-14 07:43:00,73.0,62.0,-100.00,ENE,58,4.0,-999.0,70,0.00,,,0.00,,2013-07-14 12:43:00,
2013-07-14 07:53:00,73.0,62.0,-100.00,ENE,58,4.0,-999.0,70,0.00,,,0.00,,2013-07-14 12:53:00,
2013-07-14 08:00:00,73.0,63.0,-100.00,NE,51,3.0,-999.0,71,0.00,,,0.00,,2013-07-14 13:00:00,
2013-07-14 08:42:00,73.0,63.0,-100.00,NE,51,3.0,-999.0,71,0.00,,,0.00,,2013-07-14 13:42:00,
2013-07-14 08:53:00,73.0,63.0,-100.00,NE,51,3.0,-999.0,71,0.00,,,0.00,,2013-07-14 13:53:00,
2013-07-14 09:00:00,74.0,63.0,-100.00,ENE,60,4.0,-999.0,69,0.00,,,0.00,,2013-07-14 14:00:00,
2013-07-14 09:43:00,74.0,63.0,-100.00,ENE,60,4.0,-999.0,69,0.00,,,0.00,,2013-07-14 14:43:00,
2013-07-14 09:53:00,74.0,63.0,-100.00,ENE,60,4.0,-999.0,69,0.00,,,0.00,,2013-07-14 14:53:00,
2013-07-14 11:00:00,77.0,62.0,-100.00,ESE,106,5.0,-999.0,61,0.00,,,0.00,,2013-07-14 16:00:00,
2013-07-14 11:43:00,77.0,62.0,-100.00,ESE,106,5.0,-999.0,61,0.00,,,0.00,,2013-07-14 16:43:00,
2013-07-14 11:53:00,77.0,62.0,-100.00,ESE,106,5.0,-999.0,61,0.00,,,0.00,,2013-07-14 16:53:00,
2013-07-14 12:00:00,79.0,63.0,-100.00,SE,138,6.0,-999.0,58,0.00,,,0.00,,2013-07-14 17:00:00,
2013-07-14 12:43:00,79.0,63.0,-100.00,SE,138,6.0,-999.0,58,0.00,,,0.00,,2013-07-14 17:43:00,
2013-07-14 12:53:00,79.0,63.0,-100.00,SE,138,6.0,-999.0,58,0.00,,,0.00,,2013-07-14 17:53:00,
2013-07-14 13:00:00,82.0,65.0,-100.00,SSE,164,7.0,-999.0,56,0.00,,,-99.99,,2013-07-14 18:00:00,
2013-07-14 13:42:00,82.0,65.0,-100.00,SSE,164,7.0,-999.0,56,0.00,,,-99.99,,2013-07-14 18:42:00,
2013-07-14 13:52:00,82.0,65.0,-100.00,SSE,164,7.0,-999.0,56,0.00,,,-99.99,,2013-07-14 18:52:00,
2013-07-14 14:00:00,84.0,65.0,-100.00,South,187,8.0,-999.0,52,0.00,,,0.00,,2013-07-14 19:00:00,
2013-07-14 14:43:00,84.0,65.0,-100.00,South,187,8.0,-999.0,52,0.00,,,0.00,,2013-07-14 19:43:00,
2013-07-14 14:53:00,84.0,65.0,-100.00,South,187,8.0,-999.0,52,0.00,,,0.00,,2013-07-14 19:53:00,
2013-07-14 15:00:00,82.0,65.0,-100.00,South,171,11.0,-999.0,56,0.00,,,0.00,,2013-07-14 20:00:00,
2013-07-14 15:43:00,82.0,65.0,-100.00,South,171,11.0,-999.0,56,0.00,,,0.00,,2013-07-14 20:43:00,
2013-07-14 15:53:00,82.0,65.0,-100.00,South,171,11.0,-999.0,56,0.00,,,0.00,,2013-07-14 20:53:00,
2013-07-14 16:00:00,80.0,66.0,-100.00,South,174,10.0,-999.0,62,0.00,,,0.00,,2013-07-14 21:00:00,
2013-07-14 16:43:00,80.0,66.0,-100.00,South,174,10.0,-999.0,62,0.00,,,0.00,,2013-07-14 21:43:00,
2013-07-14 16:52:00,80.0,66.0,-100.00,South,174,10.0,-999.0,62,0.00,,,0.00,,2013-07-14 21:52:00,
2013-07-14 17:00:00,81.0,65.0,-100.00,SSE,158,7.0,-999.0,59,0.00,,,0.00,,2013-07-14 22:00:00,
2013-07-14 17:42:00,81.0,65.0,-100.00,SSE,158,7.0,-999.0,59,0.00,,,0.00,,2013-07-14 22:42:00,
2013-07-14 17:53:00,81.0,65.0,-100.00,SSE,158,7.0,-999.0,59,0.00,,,0.00,,2013-07-14 22:53:00,
2013-07-14 18:00:00,80.0,66.0,-100.00,South,171,5.0,-999.0,63,0.00,,,0.00,,2013-07-14 23:00:00,
2013-07-14 18:42:00,80.0,66.0,-100.00,South,171,5.0,-999.0,63,0.00,,,0.00,,2013-07-14 23:42:00,
2013-07-14 18:53:00,80.0,66.0,-100.00,South,171,5.0,-999.0,63,0.00,,,0.00,,2013-07-14 23:53:00,
2013-07-14 21:00:00,77.0,66.0,-100.00,ESE,104,1.0,-999.0,68,0.00,,,0.00,,2013-07-15 02:00:00,
2013-07-14 21:42:00,77.0,66.0,-100.00,ESE,104,1.0,-999.0,68,0.00,,,0.00,,2013-07-15 02:42:00,
2013-07-14 21:53:00,77.0,66.0,-100.00,ESE,104,1.0,-999.0,68,0.00,,,0.00,,2013-07-15 02:53:00,
2013-07-14 22:00:00,75.0,65.0,-100.00,SSE,153,1.0,-999.0,72,0.00,,,0.00,,2013-07-15 03:00:00,
2013-07-14 22:43:00,75.0,65.0,-100.00,SSE,153,1.0,-999.0,72,0.00,,,0.00,,2013-07-15 03:43:00,
2013-07-14 22:53:00,75.0,65.0,-100.00,SSE,153,1.0,-999.0,72,0.00,,,0.00,,2013-07-15 03:53:00,